RH
49 51 52 54 57 60 62 63 65 68 65 64 69 72 73 75 76 76 75 73 72 73 74 73 71 70 68 65 60 55 53 50 49 50 50 49 48 45 41 38 38 38
43 47 48 48 50 53 58 61 63 66 66 66 70 72 73 73 73 73 73 71 71 72 73 72 71 70 69 67 64 60 56 53 51 50 49 49 50 48 46 44 42 40
38 41 44 45 45 47 52 58 62 63 63 65 69 72 74 75 75 73 71 69 69 71 72 70 68 68 68 67 66 63 56 52 50 48 47 48 48 49 50 51 49 43
36 37 39 42 43 43 44 51 59 62 61 62 65 68 70 73 77 77 74 71 69 69 70 70 68 66 63 61 62 60 54 50 47 45 44 44 47 51 54 55 55 48
36 36 37 38 40 41 41 43 49 56 60 61 61 63 64 67 73 78 79 78 75 71 70 69 68 64 57 55 56 53 48 46 44 40 38 42 47 53 56 59 59 51
39 37 36 37 37 39 40 40 42 47 54 59 61 61 61 62 66 73 78 81 79 77 75 71 69 63 56 54 54 50 46 46 45 41 40 43 47 52 58 62 61 54
41 41 39 37 36 37 38 39 39 41 44 51 58 62 61 59 59 64 71 76 78 78 76 74 70 66 61 59 56 52 52 54 53 49 47 45 46 51 58 62 62 58
38 41 41 40 38 36 36 37 38 39 39 42 49 57 61 60 56 56 62 69 74 75 74 71 69 68 67 65 62 57 55 58 58 54 50 46 44 47 53 59 62 61
40 39 39 41 40 38 37 36 36 37 38 38 40 46 54 58 56 54 56 61 68 72 72 68 66 67 69 68 67 63 58 56 56 54 50 46 41 40 44 50 56 57
47 44 41 40 40 40 39 37 36 36 36 37 37 39 44 51 54 53 53 56 62 68 69 66 65 66 67 69 68 64 59 57 56 54 52 46 38 34 37 41 48 51
49 50 48 45 42 40 40 38 37 36 35 36 36 36 38 45 51 52 52 52 55 62 64 63 64 65 65 66 64 60 57 57 58 57 56 52 42 35 36 39 42 46
46 47 49 49 47 45 43 40 38 36 35 34 35 35 35 39 45 50 51 51 51 56 59 58 61 64 65 64 60 57 56 56 58 58 56 55 49 40 41 44 42 41
46 46 46 48 49 49 47 46 43 40 37 34 33 33 33 35 39 45 49 49 48 52 55 56 55 56 59 61 58 57 56 55 57 58 55 55 54 47 46 47 45 42
48 47 47 47 47 47 48 48 48 46 42 38 35 33 31 31 34 38 44 48 47 47 49 52 53 52 54 58 58 56 54 52 53 56 57 59 60 56 52 50 48 46
50 49 49 48 46 46 46 46 46 46 45 42 40 37 35 32 30 31 34 40 45 46 45 45 46 47 48 53 53 49 47 47 47 50 55 59 60 59 56 55 55 52
50 50 49 48 47 46 46 44 43 43 42 41 39 40 39 36 34 31 29 30 33 38 40 40 40 41 42 45 45 40 38 40 42 44 48 53 56 56 56 59 61 59
50 50 49 48 47 47 45 44 43 42 40 38 36 36 38 38 37 35 33 31 29 29 31 32 33 35 37 38 38 35 34 36 38 39 40 43 47 51 55 58 60 61
49 49 48 47 47 46 45 44 43 42 39 35 33 33 34 36 36 37 36 36 35 33 31 30 30 30 31 31 30 30 32 35 37 37 37 36 38 42 47 51 53 56
52 51 50 49 48 47 47 46 45 45 43 39 36 35 35 35 36 36 36 36 36 36 35 34 33 33 33 33 31 30 32 33 35 36 36 34 34 35 38 43 46 47
56 56 55 54 53 51 50 49 47 46 45 44 41 39 38 37 36 36 36 36 36 36 35 34 34 34 36 37 37 36 35 36 36 36 35 33 33 33 34 36 41 45
59 59 60 59 57 56 54 52 50 47 46 45 44 42 41 41 40 39 38 37 36 36 36 35 35 34 35 36 38 38 38 40 40 39 37 35 33 34 35 34 40 48
62 63 62 61 59 59 57 54 53 51 48 47 46 45 44 44 44 43 42 40 39 38 37 37 37 36 36 36 37 39 39 40 41 41 41 40 37 37 39 38 40 45
66 65 64 62 60 61 61 59 57 55 52 50 48 47 46 46 45 44 42 41 40 39 39 38 38 38 38 37 37 39 40 39 39 40 41 43 43 41 43 48 54 52
68 69 70 68 66 65 66 65 64 62 59 57 55 54 52 51 49 47 46 44 42 41 40 40 40 40 40 39 38 39 40 39 38 39 39 42 44 44 45 49 56 55
71 73 74 72 70 68 67 68 69 68 67 64 61 60 58 55 53 52 51 49 48 46 45 44 44 42 41 41 40 40 42 41 39 38 38 39 42 45 49 51 52 57
73 75 74 73 72 70 69 70 70 71 71 69 67 66 64 60 58 56 55 54 53 53 52 50 49 48 46 45 43 42 43 44 43 40 38 38 40 43 49 52 52 55